[[{"header":{"parameterUnit":"m.s-1","parameterCategory":1,"la1":30.2991,"la2":30.254,"lo1":-89.0895,"lo2":-89.0444,"dy":0.0017,"dx":0.0017,"nx":28,"ny":28,"refTime":"2023-08-19T03:00:00:Z","depth":0,"parameterNumber":2,"parameterNumberName":"U-component_of_WINDS"},"data":[0,0,0,0,0,0,0,0,0,0,0,0,0,0,0,0,0,0,0,0,0,0,0,0,0,0,0,0,0,0,0,0,0,0,0,0,0,0,0,0,0,0,0,0,0,0,0,0,0,0,0,0,0,0,0,0,0,0,-2.4491,-2.4491,0,-2.4469,-2.4469,-2.4469,-2.442,-2.4419,-2.4418,-2.4417,-2.4396,-2.4397,-2.4397,0,0,0,0,0,0,0,0,0,0,0,0,0,-2.4494,-2.4494,-2.4491,-2.4491,-2.4491,-2.4469,-2.4469,-2.4468,-2.442,-2.4419,-2.4417,-2.4416,-2.4396,-2.4397,-2.4397,0,0,0,0,0,0,0,0,0,0,0,0,0,-2.4485,-2.4494,-2.4491,-2.4464,-2.4461,-2.4469,-2.4469,-2.4468,-2.442,-2.4419,-2.4417,-2.4416,-2.4396,-2.4396,-2.4397,-2.4431,0,0,-2.4399,-2.4399,0,0,0,0,0,0,0,0,-2.4485,-2.4485,-2.4468,-2.4466,-2.4463,-2.4445,-2.4462,-2.4456,-2.442,-2.4436,-2.4417,-2.4415,-2.4414,-2.4413,-2.4412,-2.443,-2.4429,-2.4399,-2.4399,-2.44,-2.44,0,0,0,0,0,0,0,-2.4486,-2.4485,-2.4482,-2.4468,-2.4465,-2.4453,-2.445,-2.4461,-2.4434,-2.4434,-2.4431,-2.4429,-2.4412,-2.4412,-2.4411,-2.4429,-2.4399,-2.4399,-2.44,-2.44,-2.4475,-2.4476,0,0,0,0,0,0,-2.449,-2.4486,-2.4483,-2.4482,-2.447,-2.4455,-2.4451,-2.4453,-2.4433,-2.4429,-2.443,-2.4426,-2.4411,-2.4411,-2.441,-2.445,-2.44,-2.44,-2.44,-2.4473,-2.4475,-2.4477,0,0,0,0,0,0,-2.449,-2.449,-2.4484,-2.4483,-2.4481,-2.4456,-2.4458,-2.4453,-2.4452,-2.443,-2.4425,-2.4434,-2.441,-2.441,-2.4426,-2.4448,-2.44,-2.4401,-2.4471,-2.4474,-2.4476,-2.4528,0,0,0,0,0,0,-2.4491,-2.4491,-2.4503,-2.4484,-2.4482,-2.4499,-2.4459,-2.4454,-2.4453,-2.4448,-2.4433,-2.4429,-2.4409,-2.4426,-2.4427,-2.4448,-2.4401,-2.4469,-2.4472,-2.4475,-2.4524,-2.4532,-2.4539,0,0,0,0,0,-2.4491,-2.4518,-2.4503,-2.4503,-2.4496,-2.4501,-2.45,-2.4476,-2.4455,-2.4467,-2.4453,-2.4429,-2.4446,-2.4428,-2.4429,-2.4451,-2.4468,-2.4472,-2.4475,-2.4521,-2.453,-2.4538,0,0,0,0,0,0,-2.4541,-2.4515,-2.4498,-2.452,-2.4513,-2.4492,-2.4507,-2.4486,-2.4485,-2.4481,-2.4452,-2.4449,-2.447,-2.4462,-2.4443,-2.4483,-2.4453,-2.4457,-2.4488,-2.4496,-2.4503,-2.4505,-2.4402,0,0,0,0,0,-2.4554,-2.456,-2.4537,-2.4559,-2.4556,-2.4532,-2.4534,-2.4516,-2.4508,-2.4505,-2.4492,-2.4485,-2.4489,-2.4492,-2.4494,-2.4523,-2.452,-2.4539,-2.4546,-2.4552,-2.4556,-2.4572,-2.458,-2.4489,-2.4489,-2.4489,0,0,-2.4582,-2.4569,-2.4574,-2.4568,-2.4561,-2.4568,-2.453,-2.4539,-2.4545,-2.4506,-2.4521,-2.4512,-2.4503,-2.4526,-2.4536,-2.452,-2.458,-2.4556,-2.4561,-2.4562,-2.4576,-2.4585,-2.4593,-2.4492,-2.4491,-2.4491,0,0,-2.4636,-2.4626,-2.4643,-2.4637,-2.4626,-2.461,-2.4615,-2.4598,-2.459,-2.4604,-2.4576,-2.4583,-2.459,-2.4585,-2.4584,-2.4638,-2.4617,-2.464,-2.4677,-2.4693,-2.4701,-2.4707,-2.4728,-2.4735,-2.4644,-2.4644,-2.4644,0,-2.4672,-2.4681,-2.4655,-2.4666,-2.4665,-2.4631,-2.4649,-2.4644,-2.4635,-2.4635,-2.4618,-2.4627,-2.4618,-2.464,-2.4654,-2.4654,-2.4659,-2.4641,-2.4702,-2.4708,-2.4713,-2.4733,-2.474,-2.4647,-2.4647,-2.4646,-2.4646,0,-2.4727,-2.4734,-2.4749,-2.4741,-2.4742,-2.4756,-2.4733,-2.4738,-2.4721,-2.4707,-2.4724,-2.4713,-2.4713,-2.4717,-2.47,-2.4737,-2.4728,-2.4707,-2.4676,-2.4725,-2.4743,-2.475,-2.4651,-2.465,-2.4649,-2.4649,0,0,-2.4811,-2.4789,-2.4795,-2.4791,-2.4777,-2.4783,-2.4797,-2.4796,-2.4801,-2.4797,-2.4808,-2.4816,-2.4796,-2.4795,-2.4777,-2.4792,-2.4837,-2.4768,-2.4768,-2.4782,-2.488,-2.4896,-2.4905,-2.4823,-2.4824,-2.4825,-2.4881,0,-2.4862,-2.4884,-2.4861,-2.4888,-2.4895,-2.4863,-2.4875,-2.4869,-2.4858,-2.4863,-2.485,-2.4857,-2.483,-2.4829,-2.4841,-2.4829,-2.4857,-2.4825,-2.4835,-2.4836,-2.4838,-2.4914,-2.4931,-2.4984,-2.4887,-2.4888,-2.4889,0,-2.4925,-2.4923,-2.495,-2.4936,-2.4938,-2.495,-2.4948,-2.4953,-2.4946,-2.4937,-2.4936,-2.4916,-2.493,-2.49,-2.492,-2.4899,-2.4902,-2.4897,-2.4899,-2.4899,-2.4866,-2.4917,-2.5,-2.5008,-2.49,-2.4899,-2.4898,0,-2.4984,-2.4989,-2.5006,-2.5004,-2.4988,-2.4997,-2.499,-2.4982,-2.4984,-2.4983,-2.4984,-2.4986,-2.4986,-2.4989,-2.497,-2.4949,-2.4993,-2.4961,-2.4987,-2.4987,-2.4997,-2.4997,-2.5082,-2.4999,-2.4999,-2.4998,-2.4998,0,-2.5044,-2.5063,-2.5033,-2.5043,-2.5063,-2.5038,-2.5059,-2.505,-2.5043,-2.5052,-2.5025,-2.5035,-2.5009,-2.5016,-2.5001,-2.5021,-2.5022,-2.5016,-2.5012,-2.5018,-2.5019,-2.502,-2.5016,-2.5001,-2.5,-2.5,-2.4999,0,-2.5114,-2.5094,-2.5111,-2.5095,-2.5091,-2.5107,-2.5093,-2.5103,-2.5091,-2.5103,-2.5105,-2.5085,-2.5092,-2.5074,-2.5078,-2.5069,-2.5097,-2.5087,-2.51,-2.5097,-2.5124,-2.5122,-2.5213,-2.5225,-2.5133,-2.5134,-2.5135,0,-2.5153,-2.5167,-2.5152,-2.5156,-2.5151,-2.5158,-2.516,-2.5136,-2.514,-2.5134,-2.5145,-2.515,-2.5153,-2.5167,-2.5154,-2.5158,-2.5148,-2.518,-2.5149,-2.5156,-2.515,-2.5149,-2.5151,-2.5186,-2.5188,-2.5188,-2.5189,0,-2.5226,-2.5216,-2.5219,-2.522,-2.5223,-2.5222,-2.522,-2.5225,-2.52,-2.5206,-2.5213,-2.5215,-2.522,-2.5227,-2.5228,-2.5223,-2.5203,-2.5199,-2.5206,-2.5213,-2.522,-2.5217,-2.5118,-2.5197,-2.5196,-2.5196,-2.5195,-2.5195,-2.5282,-2.5293,-2.5285,-2.529,-2.5286,-2.5285,-2.5293,-2.5282,-2.5287,-2.5289,-2.5276,-2.5286,-2.5281,-2.5281,-2.5278,-2.5287,-2.5273,-2.5282,-2.5284,-2.5287,-2.5292,-2.5218,-2.5287,-2.5287,-2.5287,-2.5287,-2.5286,0,-2.5354,-2.5347,-2.5352,-2.535,-2.5355,-2.5334,-2.5331,-2.5337,-2.5346,-2.5343,-2.5346,-2.5356,-2.5362,-2.535,-2.5355,-2.5365,-2.5356,-2.5367,-2.5366,-2.5366,-2.5304,-2.5298,-2.5374,-2.5374,-2.5374,-2.5374,-2.5374,-2.5374,-2.5392,-2.541,-2.5399,-2.5415,-2.5409,-2.5419,-2.5419,-2.5418,-2.5415,-2.5427,-2.5432,-2.5424,-2.5418,-2.5422,-2.5428,-2.5424,-2.5428,-2.5442,-2.5436,-2.5378,-2.537,-2.5362,-2.5356,-2.5443,-2.5443,-2.5497,-2.5497,-2.5498]},{"header":{"parameterUnit":"m.s-1","parameterCategory":1,"la1":30.2991,"la2":30.254,"lo1":-89.0895,"lo2":-89.0444,"dy":0.0017,"dx":0.0017,"nx":28,"ny":28,"refTime":"2023-08-19T03:00:00:Z","depth":0,"parameterNumber":3,"parameterNumberName":"V-component_of_WINDS"},"data":[0,0,0,0,0,0,0,0,0,0,0,0,0,0,0,0,0,0,0,0,0,0,0,0,0,0,0,0,0,0,0,0,0,0,0,0,0,0,0,0,0,0,0,0,0,0,0,0,0,0,0,0,0,0,0,0,0,0,0.4663,0.4663,0,0.4668,0.4668,0.4668,0.4652,0.4651,0.4651,0.465,0.4653,0.4653,0.4654,0,0,0,0,0,0,0,0,0,0,0,0,0,0.4639,0.4639,0.4663,0.4663,0.4664,0.4668,0.4668,0.4668,0.4652,0.4651,0.4651,0.465,0.4653,0.4653,0.4654,0,0,0,0,0,0,0,0,0,0,0,0,0,0.4647,0.4639,0.4663,0.4656,0.4655,0.4668,0.4668,0.4668,0.4652,0.4651,0.465,0.465,0.4652,0.4653,0.4654,0.4673,0,0,0.4656,0.4656,0,0,0,0,0,0,0,0,0.4646,0.4648,0.4657,0.4657,0.4656,0.4658,0.466,0.4669,0.4652,0.4653,0.465,0.4649,0.4655,0.4656,0.4658,0.4673,0.4673,0.4656,0.4657,0.4657,0.4657,0,0,0,0,0,0,0,0.4646,0.4647,0.4665,0.4657,0.4657,0.4652,0.4652,0.4661,0.4658,0.4653,0.4652,0.4653,0.4655,0.4657,0.4658,0.4673,0.4656,0.4657,0.4657,0.4658,0.47,0.4701,0,0,0,0,0,0,0.4646,0.4647,0.4665,0.4665,0.4649,0.4653,0.4653,0.4658,0.4658,0.4657,0.4653,0.4652,0.4656,0.4657,0.4658,0.4678,0.4657,0.4658,0.4658,0.47,0.4701,0.4701,0,0,0,0,0,0,0.4646,0.4648,0.4665,0.4656,0.4657,0.4654,0.466,0.4659,0.4661,0.4658,0.4657,0.4657,0.4656,0.4657,0.4669,0.4678,0.4658,0.4659,0.4699,0.47,0.4701,0.4719,0,0,0,0,0,0,0.4645,0.4648,0.4656,0.4656,0.4658,0.4676,0.466,0.4659,0.4663,0.4661,0.4661,0.466,0.4655,0.4667,0.4669,0.4678,0.4659,0.4698,0.4699,0.4701,0.4717,0.472,0.4723,0,0,0,0,0,0.4645,0.4661,0.4657,0.4659,0.4668,0.4677,0.4678,0.4672,0.4664,0.4671,0.4668,0.466,0.4677,0.4669,0.4671,0.468,0.4698,0.4699,0.4701,0.4716,0.472,0.4723,0,0,0,0,0,0,0.4662,0.4661,0.4656,0.4673,0.4675,0.4674,0.4683,0.4677,0.4681,0.4679,0.4671,0.4671,0.4684,0.4683,0.4675,0.4697,0.4685,0.4687,0.4697,0.47,0.4703,0.4702,0.466,0,0,0,0,0,0.4668,0.4676,0.4675,0.469,0.4691,0.4687,0.4691,0.4686,0.4688,0.4688,0.4687,0.4688,0.4693,0.4697,0.4702,0.4718,0.4716,0.4725,0.4728,0.473,0.4731,0.4737,0.474,0.4706,0.4706,0.4706,0,0,0.4681,0.4681,0.4687,0.4694,0.4695,0.4702,0.4688,0.4697,0.4702,0.469,0.47,0.4699,0.47,0.4713,0.4719,0.4713,0.474,0.4732,0.4734,0.4734,0.4739,0.4742,0.4745,0.4707,0.4707,0.4707,0,0,0.4706,0.4708,0.472,0.4721,0.4723,0.472,0.4722,0.4722,0.4721,0.4731,0.4722,0.4727,0.4737,0.4737,0.4738,0.4762,0.4754,0.4764,0.4778,0.4784,0.4786,0.4789,0.4795,0.4798,0.4766,0.4766,0.4766,0,0.4721,0.4732,0.4727,0.4736,0.4738,0.4728,0.4738,0.474,0.4743,0.4744,0.4738,0.4748,0.4748,0.476,0.4766,0.4768,0.4769,0.4764,0.4787,0.4789,0.4791,0.4797,0.48,0.4767,0.4767,0.4767,0.4767,0,0.4749,0.4757,0.4766,0.4769,0.4772,0.4782,0.4777,0.4781,0.4776,0.4773,0.4783,0.4782,0.4786,0.4789,0.4784,0.4799,0.4796,0.4788,0.4776,0.4795,0.4801,0.4803,0.4768,0.4768,0.4768,0.4767,0,0,0.4786,0.4784,0.4788,0.4788,0.4788,0.4794,0.4802,0.4806,0.4808,0.4811,0.4817,0.4824,0.4817,0.4819,0.4814,0.4819,0.4835,0.4811,0.4811,0.4814,0.485,0.4854,0.4857,0.4831,0.4831,0.4831,0.4849,0,0.4809,0.4824,0.4818,0.4833,0.4839,0.4829,0.4836,0.4836,0.4834,0.4837,0.4834,0.4839,0.483,0.4831,0.4836,0.4832,0.4842,0.4831,0.4834,0.4834,0.4833,0.486,0.4865,0.4882,0.4852,0.4852,0.4852,0,0.4838,0.4841,0.4856,0.4853,0.4856,0.4862,0.4864,0.4869,0.4868,0.4866,0.4867,0.486,0.4867,0.4856,0.4865,0.4857,0.4858,0.4856,0.4857,0.4856,0.4843,0.4858,0.4888,0.489,0.4856,0.4856,0.4855,0,0.486,0.4868,0.4877,0.4878,0.4876,0.4881,0.488,0.4879,0.4881,0.4882,0.4883,0.4885,0.4886,0.4888,0.4881,0.4874,0.489,0.4879,0.4886,0.4886,0.4889,0.4888,0.4917,0.4892,0.4892,0.4892,0.4892,0,0.4885,0.4894,0.4887,0.4893,0.4902,0.4895,0.4905,0.4903,0.4902,0.4906,0.4898,0.4902,0.4894,0.4897,0.4892,0.4898,0.4899,0.4896,0.4894,0.4896,0.4896,0.4895,0.4893,0.4893,0.4893,0.4893,0.4893,0,0.4911,0.4907,0.4916,0.4913,0.4912,0.4919,0.4916,0.4921,0.4918,0.4923,0.4924,0.4918,0.4921,0.4915,0.4917,0.4914,0.4922,0.492,0.4923,0.4921,0.4928,0.4927,0.4956,0.4959,0.4934,0.4934,0.4934,0,0.4926,0.4933,0.4931,0.4933,0.4933,0.4937,0.4938,0.4932,0.4934,0.4933,0.4937,0.4939,0.494,0.4945,0.4941,0.4942,0.4938,0.4948,0.4938,0.4939,0.4936,0.4935,0.4935,0.495,0.495,0.495,0.495,0,0.4953,0.495,0.4953,0.4955,0.4957,0.4958,0.4959,0.4961,0.4954,0.4956,0.4959,0.496,0.4962,0.4963,0.4963,0.4961,0.4954,0.4954,0.4955,0.4956,0.4957,0.4955,0.4926,0.4953,0.4953,0.4952,0.4952,0.4952,0.4973,0.4977,0.4976,0.4979,0.4979,0.4979,0.4982,0.4979,0.4982,0.4983,0.4979,0.4982,0.498,0.4979,0.4978,0.498,0.4975,0.4978,0.4978,0.4978,0.4979,0.4958,0.498,0.498,0.498,0.498,0.498,0,0.4997,0.4996,0.4999,0.4999,0.5001,0.4995,0.4995,0.4997,0.5,0.4999,0.5,0.5002,0.5004,0.4999,0.5,0.5002,0.4998,0.5002,0.5001,0.5,0.4984,0.4982,0.5005,0.5005,0.5005,0.5005,0.5005,0.5005,0.501,0.5017,0.5014,0.502,0.5019,0.5022,0.5022,0.5022,0.5021,0.5024,0.5025,0.5022,0.5019,0.5019,0.502,0.5018,0.5018,0.5022,0.502,0.5004,0.5002,0.4999,0.4997,0.5023,0.5023,0.5036,0.5036,0.5036]}]]